Iron Mountain, MI

11:00 AM CDT on April 26, 2017 (GMT -0500)
Ford

Weather History for KIMT - June, 2014

Change the Weather History Date:

Tuesday, June 3, 2014

  Actual Average Record
Temperature  
Mean Temperature 62 °F -  
Max Temperature 70 °F 72 °F 93 °F (1948)
Min Temperature 53 °F 44 °F 31 °F (1962)
Degree Days  
Heating Degree Days 2    
Growing Degree Days 12 (Base 50)    
Moisture  
Dew Point 49 °F    
Average Humidity 65    
Maximum Humidity 83    
Minimum Humidity 42    
Precipitation  
Precipitation 0.00 in - - ()
Sea Level Pressure  
Sea Level Pressure 29.75 in    
Wind  
Wind Speed 12 mph (WNW)    
Max Wind Speed 17 mph    
Max Gust Speed 29 mph    
Visibility 10 miles    
Events Rain    
Averages and records for this station are not official NWS values.
T = Trace of Precipitation, MM = Missing Value Source: NWS Daily Summary

Daily Weather History Graph

Daily Weather History Graph

Search for Another Location

Airport or City:

Trip Planner

Search our weather history database for the weather conditions in past years. The results will help you decide how hot, cold, wet, or windy it might be!

Date:

Astronomy

Jun. 03, 2014 Rise Set
Actual Time 5:04 AM CDT 8:36 PM CDT
Civil Twilight 4:27 AM CDT 9:14 PM CDT
Nautical Twilight 3:37 AM CDT 10:04 PM CDT
Astronomical Twilight 2:33 AM CDT 11:09 PM CDT
Moon 10:39 AM CDT (6/3) No Moon Set
Length of Visible Light 16h 46m
Length of Day
15h 31m
Waxing Crescent, 30% of the Moon is Illuminated
Jun 3
Waxing Crescent
Jun 5
First Quarter
Jun 12
Full
Jun 19
Last Quarter
Jun 27
New

Hourly Weather History & Observations

Time (CDT) Temp. Dew Point Humidity Pressure Visibility Wind Dir Wind Speed Gust Speed Precip Events Conditions
12:54 AM 64.0 °F 57.9 °F 80% 29.58 in 10.0 mi SSW 6.9 mph - N/A   Clear
1:54 AM 64.0 °F 55.9 °F 75% 29.58 in 10.0 mi SW 10.4 mph 19.6 mph N/A   Clear
2:54 AM 62.1 °F 53.1 °F 72% 29.58 in 10.0 mi West 12.7 mph 19.6 mph N/A   Mostly Cloudy
3:54 AM 59.0 °F 53.1 °F 81% 29.60 in 6.0 mi West 13.8 mph 20.7 mph 0.00 in Rain Light Rain
4:10 AM 57.2 °F 51.8 °F 82% 29.61 in 10.0 mi West 17.3 mph 26.5 mph 0.00 in   Overcast
4:54 AM 55.9 °F 48.9 °F 77% 29.63 in 10.0 mi West 15.0 mph 21.9 mph 0.00 in   Mostly Cloudy
5:54 AM 55.9 °F 46.0 °F 69% 29.66 in 10.0 mi WNW 12.7 mph 23.0 mph N/A   Overcast
6:29 AM 55.4 °F 46.4 °F 72% 29.69 in 10.0 mi WNW 13.8 mph 23.0 mph N/A   Overcast
6:54 AM 55.0 °F 46.0 °F 72% 29.70 in 10.0 mi WNW 12.7 mph 24.2 mph N/A   Overcast
7:43 AM 55.4 °F 46.4 °F 72% 29.73 in 10.0 mi WNW 17.3 mph 28.8 mph N/A   Mostly Cloudy
7:54 AM 55.9 °F 46.0 °F 69% 29.73 in 10.0 mi West 11.5 mph 21.9 mph N/A   Mostly Cloudy
8:24 AM 55.4 °F 46.4 °F 72% 29.75 in 10.0 mi WNW 15.0 mph 27.6 mph 0.00 in   Overcast
8:39 AM 55.4 °F 46.4 °F 72% 29.75 in 10.0 mi NW 12.7 mph 19.6 mph 0.00 in   Overcast
8:54 AM 55.9 °F 46.0 °F 69% 29.76 in 10.0 mi NW 16.1 mph 27.6 mph 0.00 in   Overcast
9:41 AM 59.0 °F 46.4 °F 63% 29.77 in 10.0 mi WNW 13.8 mph 20.7 mph N/A   Overcast
9:54 AM 61.0 °F 46.9 °F 60% 29.77 in 10.0 mi NW 12.7 mph 25.3 mph N/A   Mostly Cloudy
10:54 AM 64.0 °F 46.9 °F 54% 29.79 in 10.0 mi WNW 17.3 mph 28.8 mph N/A   Mostly Cloudy
11:54 AM 64.9 °F 48.0 °F 54% 29.81 in 10.0 mi WNW 10.4 mph 27.6 mph N/A   Overcast
12:54 PM 64.0 °F 50.0 °F 60% 29.83 in 10.0 mi West 16.1 mph 26.5 mph N/A   Overcast
1:54 PM 64.9 °F 50.0 °F 58% 29.82 in 10.0 mi WNW 11.5 mph 18.4 mph N/A   Overcast
2:54 PM 68.0 °F 50.0 °F 52% 29.81 in 10.0 mi West 13.8 mph 18.4 mph N/A   Overcast
3:54 PM 68.0 °F 48.9 °F 50% 29.82 in 10.0 mi WNW 10.4 mph 19.6 mph N/A   Overcast
4:54 PM 70.0 °F 48.9 °F 47% 29.83 in 10.0 mi NW 12.7 mph 21.9 mph 0.00 in   Mostly Cloudy
5:54 PM 70.0 °F 48.9 °F 47% 29.84 in 10.0 mi NW 16.1 mph 21.9 mph N/A   Partly Cloudy
6:54 PM 70.0 °F 46.0 °F 42% 29.84 in 10.0 mi WNW 11.5 mph 23.0 mph N/A   Clear
7:54 PM 68.0 °F 46.9 °F 47% 29.85 in 10.0 mi NW 8.1 mph - N/A   Clear
8:54 PM 60.1 °F 46.9 °F 62% 29.86 in 10.0 mi North 3.5 mph - N/A   Clear
10:54 PM 53.1 °F 48.0 °F 83% 29.89 in 10.0 mi Calm Calm - N/A   Clear